User: anonymous   Login
Location: Clair
(33.8067°N, 117.9845°W)
Time: 21:07:37
(UTC+00:00)
Language:

Cosmos 783 Rocket - Orbit

View from above orbital plane
View from above orbital plane
View from above satellite
View from above satellite

Ground track
Ground track

The orbit is defined by the following mean orbital elements,

1 08459U          26106.55169683 +.00000000 +00000-0 +30426-4 0 00006
2 08459  74.0600 309.2647 0015080  27.9888 332.2074 14.38223416    07
Epoch (UTC): 16 April 2026 13:14:26
Eccentricity: 0.0015080
inclination: 74.0600°
perigee height: 754 km
apogee height: 775 km
right ascension of ascending node: 309.2647°
argument of perigee: 27.9888°
revolutions per day: 14.38223416
mean anomaly at epoch: 332.2074°

The dashed part of the orbit path shows where the satellite is in the earth's shadow,  

DLR